Location: Carnoy
(49.9849°N, 2.7558°E)
Time: 22:29:39
(UTC+00:00)

COBE Rocket - Pass Details

Date: 24 January 2020
Orbit: 681 x 781 km, 97.1° (Epoch: 16 February)

Event Time Altitude Azimuth Distance (km) Brightness Sun altitude
Rises 17:03:41 0° 11° (N) 3,250 6.9 -5.8°
Reaches altitude 10° 17:06:00 10° 11° (N) 2,329 6.2 -6.2°
Maximum altitude 17:11:10 80° 286° (WNW) 797 4.2 -7.0°
Drops below altitude 10° 17:16:20 10° 199° (SSW) 2,331 7.1 -7.7°
Sets 17:18:39 0° 198° (SSW) 3,253 7.9 -8.1°
